Flag for Russia Weather past 2 weeks in Sochi, Russia

Now
52 °F

Passing clouds.


Feels Like: 48 °F
Forecast: 66 / 80 °F
Wind: 10 mph from East

Location: Adler

Current Time: Oct 22, 2014 at 8:19:54 AM

Latest Report: Oct 22, 2014 at 8:00 AM


Visibility: N/A

Pressure: 29.92 "Hg

Humidity: 77%

Dew point: 45 °F

Location of SochiLocation

Historic Weather in Sochi — Graph

°F

Sochi temperature yesterday

Maximum temperature yesterday: 63 °F (at 12:00 PM)
Minimum temperature yesterday: 46 °F (at 4:00 AM)
Average temperature yesterday: 54 °F

Past Weeks' High & Low Weather Summary

 TemperatureHumidityPressure
High72 °F (Oct 8, 12:30 PM)94% (Oct 10, 9:30 PM)30.27 "Hg (Oct 10, 9:30 PM)
Low46 °F (Oct 20, 5:30 AM)47% (Oct 8, 12:30 PM)29.62 "Hg (Oct 18, 5:30 PM)
Average60 °F77%30.04 "Hg
* Reported Oct 7 7:00 AM — Oct 22 7:00 AM, Sochi, Weather by CustomWeather, © 2014

Note: Actual official high and low records may vary slightly from our data, if they occured in-between our weather recording intervals... More about our weather records

Advertising

Sochi weather history for previous 24 hours

 ConditionsComfort  
Time TempWeatherWind HumidityBarometerVisibility
7:00 AM
Oct 22
54 °FPassing clouds.8 mph72%29.92 "HgN/A
6:30 AM54 °FPassing clouds.6 mph72%29.89 "HgN/A
6:00 AM52 °FPassing clouds.8 mph77%29.89 "HgN/A
5:30 AM52 °FPassing clouds.8 mph77%29.89 "HgN/A
4:30 AM52 °FPassing clouds.10 mph82%29.92 "HgN/A
4:00 AM52 °FPassing clouds.8 mph82%29.92 "HgN/A
3:30 AM52 °FPassing clouds.10 mph82%29.92 "HgN/A
3:00 AM52 °FPassing clouds.10 mph82%29.95 "HgN/A
2:30 AM52 °FPassing clouds.10 mph82%29.95 "HgN/A
2:00 AM50 °FPassing clouds.8 mph88%29.95 "HgN/A
1:30 AM52 °FOvercast.8 mph82%29.95 "HgN/A
1:00 AM52 °FOvercast.8 mph82%29.95 "HgN/A
12:30 AM52 °FPassing clouds.8 mph82%29.98 "HgN/A
12:00 AM52 °FPassing clouds.8 mph82%29.98 "HgN/A
11:30 PM
Oct 21
54 °FPassing clouds.8 mph82%29.98 "HgN/A
11:00 PM54 °FPassing clouds.6 mph82%29.98 "HgN/A
10:30 PM52 °FPassing clouds.6 mph82%29.98 "HgN/A
10:00 PM54 °FPassing clouds.8 mph82%29.98 "HgN/A
9:30 PM52 °FPassing clouds.8 mph88%29.98 "HgN/A
9:00 PM52 °FHigh level clouds.8 mph88%30.01 "HgN/A
8:30 PM52 °FHigh level clouds.6 mph88%30.01 "HgN/A
8:00 PM54 °FHigh level clouds.8 mph82%30.01 "HgN/A
7:30 PM52 °FHigh level clouds.6 mph88%30.01 "HgN/A
7:00 PM55 °FHigh level clouds.3 mph72%30.01 "HgN/A
6:30 PM59 °FHigh level clouds.No wind63%30.01 "HgN/A
6:00 PM59 °FHigh level clouds.1 mph63%30.01 "HgN/A
5:30 PM61 °FOvercast.3 mph59%30.01 "Hg6 mi
5:00 PM61 °FOvercast.6 mph59%30.01 "HgN/A
4:30 PM61 °FPartly sunny.6 mph59%30.01 "HgN/A
4:00 PM61 °FPartly sunny.6 mph55%30.01 "HgN/A
3:30 PM61 °FPartly sunny.3 mph59%30.04 "HgN/A
3:00 PM61 °FPartly sunny.3 mph63%30.04 "HgN/A
2:30 PM61 °FPartly sunny.6 mph55%30.04 "HgN/A
2:00 PM61 °FScattered clouds.6 mph55%30.04 "HgN/A
1:30 PM61 °FScattered clouds.8 mph59%30.04 "HgN/A
1:00 PM61 °FScattered clouds.6 mph59%30.07 "HgN/A
12:30 PM61 °FScattered clouds.6 mph59%30.07 "HgN/A
12:00 PM63 °FScattered clouds.1 mph56%30.07 "HgN/A
11:30 AM59 °FScattered clouds.1 mph63%30.07 "HgN/A
11:00 AM59 °FScattered clouds.6 mph59%30.07 "HgN/A
10:30 AM55 °FScattered clouds.8 mph67%30.04 "HgN/A
10:00 AM54 °FScattered clouds.10 mph63%30.04 "HgN/A
9:30 AM52 °FScattered clouds.13 mph67%30.04 "HgN/A
9:00 AM50 °FPartly sunny.13 mph71%30.04 "HgN/A
8:30 AM48 °FPassing clouds.13 mph76%30.04 "HgN/A
8:00 AM48 °FPassing clouds.13 mph76%30.04 "HgN/A
Weather by CustomWeather, © 2014

See weather overviewHow to use our weather pages